Home > Weather > Accra > Past weeks

Flag for Ghana Past Weather in Accra, Ghana — Yesterday and Last 2 Weeks

Now
75 °F

Mostly cloudy.


Feels Like: 74 °F
Forecast: N/A
Wind: 13 mph from Southwest

Location: Accra Airport

Current Time: Jul 25, 2016 at 8:20:26 PM

Latest Report: Jul 25, 2016 at 7:00 PM


Visibility: N/A

Pressure: 29.89 "Hg

Humidity: 94%

Dew Point: 73 °F

Location of AccraLocation

Past Weather in Accra — Graph

°F

Accra Temperature Yesterday

Maximum temperature yesterday: 82 °F (at 1:00 PM)
Minimum temperature yesterday: 73 °F (at 5:00 AM)
Average temperature yesterday: 76 °F

High & Low Weather Summary for the Past Weeks

 TemperatureHumidityPressure
High84 °F (Jul 11, 1:00 PM)100% (Jul 19, 6:00 PM)30.01 "Hg (Jul 19, 6:00 PM)
Low73 °F (Jul 12, 4:00 AM)66% (Jul 12, 12:00 PM)29.83 "Hg (Jul 16, 3:00 PM)
Average78 °F86%29.93 "Hg
* Reported Jul 10 8:00 PM — Jul 25 7:00 PM, Accra, Weather by CustomWeather, © 2016

Note: Actual official high and low records may vary slightly from our data, if they occured in-between our weather recording intervals... More about our weather records

Advertising

Accra Weather History for the Previous 24 Hours

Scroll right to see more
 ConditionsComfort  
Time TempWeatherWind HumidityBarometerVisibility
7:00 PM
Mon, Jul 25
75 °FMostly cloudy.13 mph94%29.89 "HgN/A
6:00 PM75 °FPartly sunny.15 mph94%29.89 "HgN/A
5:00 PM75 °FPartly sunny.15 mph94%29.86 "HgN/A
4:00 PM75 °FPartly sunny.15 mph94%29.86 "Hg5 mi
3:00 PM75 °FBroken clouds.13 mph94%29.89 "HgN/A
2:00 PM77 °FPartly sunny.18 mph89%29.89 "HgN/A
1:00 PM77 °FPartly sunny.16 mph94%29.92 "HgN/A
12:00 PM77 °FRain. Cloudy.17 mph89%29.95 "Hg5 mi
11:00 AM79 °FBroken clouds.13 mph84%29.95 "HgN/A
10:00 AM79 °FBroken clouds.15 mph84%29.95 "HgN/A
9:00 AM77 °FBroken clouds.15 mph89%29.95 "HgN/A
8:00 AM75 °FPassing clouds.9 mph94%29.92 "HgN/A
7:00 AM73 °FPartly sunny.9 mph100%29.92 "HgN/A
6:00 AM73 °FOvercast.8 mph100%29.92 "HgN/A
5:00 AM73 °FClear.10 mph100%29.92 "Hg10 mi
4:00 AM73 °FPassing clouds.10 mph100%29.89 "HgN/A
3:00 AM73 °FPassing clouds.8 mph100%29.92 "HgN/A
2:00 AM73 °FPassing clouds.9 mph100%29.92 "HgN/A
1:00 AM73 °FPassing clouds.8 mph100%29.95 "HgN/A
12:00 AM73 °FPassing clouds.7 mph100%29.98 "HgN/A
11:00 PM
Sun, Jul 24
75 °FPassing clouds.7 mph94%29.98 "HgN/A
10:00 PM73 °FPassing clouds.13 mph100%29.98 "HgN/A
9:00 PM73 °FPassing clouds.13 mph100%29.95 "HgN/A
8:00 PM73 °FPassing clouds.10 mph100%29.95 "HgN/A
Weather by CustomWeather, © 2016

See weather overviewHow to use our weather pages